Regional Weather Roundup
Issued by NWS

Home | Current Version | Previous Version | Graphics & Text | Print | Product List | Glossary On
Versions: 1 2 3 4 5 6 7 8 9 10 11 12 13 14 15 16 17 18 19 20 21 22 23 24 25 26 27 28 29 30 31 32 33 34 35 36 37 38 39 40 41 42 43 44 45 46 47 48 49 50
401
ASUS43 KLSX 290859
RWRMO

WEATHER SUMMARY FOR MISSOURI
NATIONAL WEATHER SERVICE SPRINGFIELD MO
400 AM CDT SAT APR 29 2017

NOTE: "FAIR" INDICATES FEW OR NO CLOUDS BELOW 12,000 FEET WITH NO
       SIGNIFICANT WEATHER AND/OR OBSTRUCTIONS TO VISIBILITY.
       CURRENT SKY AND/OR WEATHER CONDITIONS ARE NOT AVAILABLE FOR
       CHILLICOTHE AND FARMINGTON.

MOZ001>031-035>038-043-044-053-054-291000-
...NORTHERN AND WESTERN MISSOURI...

CITY           SKY/WX    TMP DP  RH WIND       PRES   REMARKS
KANSAS CTY INT CLOUDY    45  44  97 NE16G25   29.88F VSB 1
KANSAS C DTWN  CLOUDY    47  45  93 NE14      29.90F
LEE`S SUMMIT   CLOUDY    46  46 100 NE13G22   29.88F
ST JOSEPH      CLOUDY    45  44  97 NE14      29.93S
CHILLICOTHE      N/A     47  45  93 VRB5      29.98R
KIRKSVILLE     CLOUDY    46  36  68 NE10      30.00R HAZE

$$
MOZ066>068-077>081-088>096-101>105-291000-
...SOUTHWEST MISSOURI...

CITY           SKY/WX    TMP DP  RH WIND       PRES   REMARKS
SPRINGFIELD    CLOUDY    61  59  93 E22G29    29.70F THUNDER
JOPLIN         TSTM      60  59  96 N8G22     29.71F

$$
MOZ032>034-039>042-045>050-055>058-069>072-291000-
...CENTRAL MISSOURI...

CITY           SKY/WX    TMP DP  RH WIND       PRES   REMARKS
COLUMBIA       LGT RAIN  56  56 100 NE14      29.85F
JEFFERSON CITY RAIN      59  56  89 VRB7G18   29.86F FOG
ROLLA          TSTM      58  57  97 E10       29.88R
SEDALIA        FOG       51  51 100 N14       29.90R VSB 1/2
WHITEMAN AFB   CLOUDY    48  48 100 NE14      29.86F FOG
OSAGE BEACH    TSTM      57  57 100 E9        29.85R

$$
MOZ051-052-059>065-291000-
...EAST CENTRAL MISSOURI...

CITY           SKY/WX    TMP DP  RH WIND       PRES   REMARKS
ST LOUIS INTL  TSTM      59  56  89 E15       29.84F FOG
SPIRIT OF STL  LGT RAIN  58  58 100 NE8       29.85F
ST CHARLES     RAIN      57  57 100 NE20      29.83F FOG

$$
MOZ072>076-082>087-097>100-106>115-291000-
...SOUTH CENTRAL AND SOUTHEAST MISSOURI...

CITY           SKY/WX    TMP DP  RH WIND       PRES   REMARKS
CAPE GIRARDEAU CLOUDY    68  65  90 SE5       29.79S
FARMINGTON     LGT RAIN  59  58  96 N6        29.83F
POPLAR BLUFF   CLOUDY    74  71  91 S10       29.77S
WEST PLAINS    CLOUDY    64  62  93 N6        29.78S

$$




USA.gov is the U.S. government's official web portal to all federal, state and local government web resources and services.